Wind_Speed
14 14 14 14 14 14 14 14 13 13 13 12 11 11 11 11 11 11 10 10 10 10 9 9 9 9 9 9 9 10 10 10 9 10 10 11 11 11 11 11 12 12 11
16 15 15 15 15 15 15 15 14 14 14 13 13 13 12 12 12 11 10 10 10 10 9 9 9 9 10 10 10 10 10 10 11 11 12 12 12 12 12 12 13 13 13
17 17 16 16 16 16 16 16 15 15 14 14 14 14 13 13 12 12 12 12 11 11 11 10 10 10 10 10 11 11 12 12 13 13 13 13 13 13 12 13 13 13 13
18 18 17 17 17 17 17 17 16 16 15 15 14 14 14 13 13 13 12 12 12 12 12 11 11 11 11 12 12 13 13 13 14 14 14 14 13 14 14 14 13 14 14
20 19 19 19 19 19 18 18 17 17 16 16 15 15 14 14 14 14 13 12 12 12 12 12 13 13 13 13 14 14 14 15 15 15 15 15 15 15 15 15 14 15 15
22 21 21 21 20 20 19 19 18 17 17 17 16 15 15 15 15 15 14 14 14 13 13 13 13 14 14 15 15 16 16 16 16 16 16 16 17 17 16 16 16 16 17
23 23 22 22 22 21 20 19 19 18 18 18 18 17 17 16 16 16 15 15 15 15 15 15 15 16 16 16 17 17 18 19 19 19 18 18 19 19 19 19 18 18 18
23 23 23 23 23 22 21 21 20 20 20 19 19 19 18 18 17 17 17 17 17 17 17 17 18 18 18 18 19 19 19 19 20 20 20 20 21 21 21 21 21 21 21
24 24 24 24 24 24 23 23 22 21 21 20 20 19 19 19 19 19 19 19 19 19 19 20 20 20 21 21 21 21 22 21 21 22 22 23 23 23 23 23 22 23 23
25 25 25 25 25 24 24 23 23 23 22 22 22 21 20 21 21 21 21 21 21 21 21 22 22 22 23 23 23 23 24 24 24 24 24 24 25 25 25 25 25 25 25
25 25 24 25 25 25 25 25 25 25 24 24 24 23 22 22 22 22 22 22 22 23 23 23 23 23 24 24 24 25 25 25 25 25 25 26 26 27 27 27 28 28 28
25 26 26 26 26 26 27 27 26 26 26 25 25 25 25 24 24 24 24 24 24 24 24 24 24 25 25 26 25 26 26 26 26 26 27 27 27 28 29 29 30 30 30
25 26 26 27 27 27 27 27 26 26 26 26 26 26 26 25 25 25 25 25 25 25 25 25 26 26 27 27 27 27 27 28 28 28 29 29 29 29 30 30 30 31 32
26 26 27 28 28 28 28 27 27 27 27 27 27 27 27 27 26 26 26 26 26 27 27 27 27 27 28 28 28 29 29 29 29 29 30 30 31 31 30 31 31 31 32
27 27 27 27 27 27 28 28 28 28 28 29 29 29 29 28 28 28 28 28 28 28 28 29 29 29 29 30 30 30 30 31 30 30 31 31 31 31 32 32 33 33 33
28 27 27 27 27 27 27 28 28 28 28 29 29 30 30 30 30 30 30 29 29 29 30 30 30 31 30 30 30 30 31 31 31 31 32 32 32 33 33 34 34 34 34
29 29 29 28 28 29 29 28 28 29 28 29 30 31 32 32 32 32 32 32 32 32 32 32 32 32 32 31 31 31 31 31 32 32 32 33 33 34 34 34 34 34 34
30 29 30 30 29 30 29 29 30 30 31 30 31 32 32 33 33 33 33 33 33 33 33 33 33 33 33 32 31 31 32 32 32 33 33 33 34 34 35 34 33 32 32
30 30 30 30 31 31 31 30 31 31 31 31 31 32 32 33 34 33 34 34 33 33 33 33 34 33 33 33 32 32 32 33 33 34 34 34 34 34 34 33 32 32 31
31 31 31 31 31 32 32 32 32 32 31 32 32 32 32 33 33 33 34 34 34 34 34 34 34 34 34 33 33 33 33 34 34 34 34 34 34 34 33 33 32 32 32
31 31 31 31 31 31 32 32 32 32 32 32 32 32 33 33 34 34 35 35 35 35 34 34 34 35 35 35 35 35 35 35 35 35 35 35 35 34 33 33 33 33 33
31 31 31 31 31 31 32 32 32 33 33 33 34 34 34 34 35 35 36 36 36 35 35 34 35 35 35 35 35 35 35 35 35 36 36 36 35 35 34 34 34 33 33
31 32 32 32 32 32 32 32 33 34 34 34 34 35 35 35 35 36 36 37 36 35 35 35 35 36 36 35 35 36 36 37 37 37 37 36 35 35 35 35 35 35 35
32 32 32 32 33 32 32 33 33 34 35 35 36 35 35 36 35 35 35 35 35 35 35 36 36 36 36 36 36 36 37 37 37 37 37 36 35 35 35 35 35 35 35
32 32 33 33 33 33 34 33 33 33 34 34 34 34 34 34 33 33 33 33 33 34 35 36 36 36 36 35 36 37 37 37 38 37 36 35 34 34 34 34 35 35 35
32 33 33 33 33 33 33 33 32 32 33 33 33 32 32 31 31 31 31 31 32 33 33 34 34 35 35 35 36 36 36 37 36 36 35 35 34 34 34 34 35 35 35
Wind_Direction
279 281 281 282 283 284 286 287 288 288 288 285 286 287 289 290 290 291 291 295 294 290 285 283 283 282 285 289 293 297 299 299 298 299 302 303 300 300 301 299 296 291 285
278 279 279 280 279 281 282 283 285 286 285 282 283 285 287 289 289 289 287 291 292 289 286 285 284 284 286 288 293 297 299 299 301 301 301 301 299 298 297 297 300 295 288
275 276 278 278 279 279 279 279 280 282 280 279 280 282 285 286 288 288 286 285 288 286 282 281 282 285 287 289 291 293 294 296 298 298 300 300 297 296 299 297 297 299 295
274 274 275 276 278 279 278 277 278 278 276 277 278 279 280 281 284 287 289 287 286 284 280 279 282 285 284 284 287 290 291 294 295 295 298 298 296 296 297 297 295 296 295
272 274 273 274 276 277 277 277 276 274 273 274 275 276 276 277 278 282 285 285 284 284 281 278 280 283 283 284 285 287 289 291 291 291 294 293 293 294 293 293 292 294 293
272 272 272 273 274 276 274 274 273 272 272 273 273 274 274 275 276 278 280 280 281 281 279 279 280 282 284 283 283 285 287 289 288 288 290 292 292 291 289 288 289 291 292
271 270 272 272 272 273 271 271 270 271 272 274 274 272 272 271 273 272 276 281 280 279 278 278 279 281 282 283 284 287 286 286 286 285 287 289 289 289 288 288 288 290 293
270 269 270 271 271 270 270 270 269 269 271 271 272 272 271 270 271 271 274 276 278 278 278 278 280 282 281 281 282 285 286 286 287 287 286 287 288 289 288 288 288 288 289
270 269 269 270 270 269 267 268 268 268 269 269 269 269 270 269 269 270 272 274 276 278 279 280 280 281 281 280 281 282 283 284 285 287 288 287 288 289 290 289 288 288 289
270 270 269 270 269 267 267 267 267 266 267 269 269 270 270 270 269 270 271 272 274 277 278 280 280 280 280 280 281 282 282 282 284 285 287 287 288 288 289 290 288 287 287
269 268 269 269 269 267 267 267 268 267 267 267 268 269 270 271 269 269 271 272 275 277 279 280 280 281 281 281 282 283 283 282 282 284 286 286 286 287 287 288 288 287 286
269 269 267 268 269 268 267 267 267 266 265 265 266 267 269 270 271 271 270 272 275 278 280 280 280 280 281 282 282 283 284 283 283 284 285 287 288 288 287 287 288 287 287
270 270 268 268 268 268 268 268 267 266 266 265 266 267 269 269 270 272 273 273 275 277 279 280 282 283 282 282 282 283 283 283 284 284 285 286 286 286 286 286 286 286 287
270 271 271 270 270 269 268 269 268 266 266 265 265 267 268 269 269 271 273 274 276 277 279 281 283 284 284 284 283 284 284 284 285 285 286 286 286 286 286 286 286 287 287
271 272 272 272 271 270 270 269 268 267 267 267 267 267 268 269 270 271 273 274 275 277 279 281 283 284 284 284 284 284 284 284 284 285 286 286 287 286 286 286 286 287 288
270 271 272 272 272 272 271 269 269 269 268 267 267 267 268 268 269 271 273 274 275 277 279 280 282 284 284 284 284 283 283 284 285 286 286 286 287 287 287 286 287 286 286
269 270 271 272 272 271 272 272 270 269 269 269 267 266 267 268 269 271 271 273 275 277 279 280 281 282 284 284 283 283 283 284 285 285 286 287 288 288 288 288 288 286 285
269 270 270 270 271 271 272 272 272 271 271 271 270 269 269 269 270 271 271 272 275 277 278 279 280 281 282 283 283 282 282 283 284 285 287 288 288 288 289 289 288 287 287
270 269 270 270 270 271 271 272 272 273 273 273 273 271 271 271 270 271 272 273 275 277 279 280 280 280 281 281 282 282 282 283 285 286 288 289 289 289 289 288 287 287 287
270 270 270 270 271 272 271 272 273 273 274 274 273 272 271 271 271 272 273 273 275 276 278 279 279 280 280 281 281 281 282 284 285 286 287 289 290 290 289 287 286 286 286
271 271 270 271 272 272 272 272 273 274 275 276 275 273 273 273 273 273 272 273 274 275 276 277 278 279 280 281 282 282 283 284 286 286 287 289 289 288 287 286 285 285 285
272 271 271 272 272 272 272 272 273 274 276 276 276 275 274 274 274 274 274 273 273 274 275 276 277 279 280 281 282 283 283 284 285 286 286 288 288 286 284 284 284 284 284
271 272 273 272 273 273 273 273 273 274 275 275 276 276 275 274 274 274 274 274 273 272 273 275 277 278 279 280 281 283 284 284 285 286 287 286 285 284 283 283 282 282 283
271 272 273 274 274 274 274 275 275 275 275 275 276 276 275 275 274 273 273 273 272 271 272 274 276 277 278 279 281 282 283 283 284 286 285 283 282 282 282 281 282 282 283
272 273 274 274 274 275 276 277 278 278 277 276 276 276 275 274 273 273 273 274 273 272 273 274 276 277 278 279 280 282 283 284 285 285 283 282 282 282 282 282 282 281 282
272 274 275 276 275 276 277 277 278 278 278 277 276 276 276 274 273 273 273 275 275 274 274 275 276 277 278 280 281 282 283 284 286 285 282 281 281 282 282 283 282 282 283
Height
5820 5820 5820 5819 5819 5819 5819 5818 5818 5818 5818 5818 5818 5817 5817 5816 5816 5816 5815 5815 5815 5814 5814 5814 5814 5814 5814 5814 5814 5814 5813 5813 5812 5812 5811 5811 5810 5810 5809 5808 5808 5807 5806
5816 5816 5816 5816 5816 5815 5815 5815 5815 5815 5815 5815 5815 5815 5814 5814 5814 5813 5813 5813 5812 5812 5812 5812 5812 5812 5812 5812 5812 5811 5811 5810 5810 5809 5809 5808 5807 5807 5806 5805 5804 5803 5803
5812 5812 5812 5812 5812 5811 5811 5811 5811 5811 5811 5811 5811 5811 5811 5811 5811 5810 5810 5810 5810 5810 5809 5809 5809 5809 5809 5809 5809 5808 5808 5807 5807 5806 5806 5805 5804 5803 5802 5802 5801 5800 5799
5807 5807 5807 5807 5807 5807 5807 5807 5807 5807 5807 5808 5808 5808 5808 5808 5808 5808 5807 5807 5807 5806 5806 5806 5806 5806 5806 5806 5805 5805 5805 5804 5803 5803 5802 5801 5800 5799 5799 5798 5797 5796 5795
5802 5802 5802 5802 5803 5803 5803 5802 5803 5803 5803 5803 5804 5804 5804 5804 5804 5804 5804 5804 5803 5803 5803 5803 5803 5803 5803 5802 5802 5801 5801 5800 5800 5799 5798 5797 5796 5796 5795 5794 5793 5792 5791
5796 5797 5797 5797 5797 5797 5797 5797 5798 5798 5798 5799 5799 5799 5800 5800 5800 5800 5800 5800 5800 5799 5799 5799 5799 5799 5798 5798 5798 5797 5797 5796 5795 5795 5794 5793 5792 5791 5790 5789 5788 5787 5786
5790 5790 5791 5791 5791 5792 5792 5792 5792 5793 5793 5794 5794 5795 5795 5795 5795 5796 5796 5796 5796 5795 5795 5795 5795 5794 5794 5794 5793 5793 5792 5791 5791 5790 5789 5788 5787 5786 5785 5784 5783 5782 5781
5783 5784 5784 5785 5785 5786 5786 5787 5787 5787 5788 5789 5789 5789 5790 5790 5791 5791 5791 5791 5791 5791 5790 5790 5790 5789 5789 5789 5788 5788 5787 5786 5785 5784 5783 5782 5782 5781 5780 5779 5777 5776 5775
5777 5777 5778 5778 5778 5779 5780 5780 5781 5782 5782 5783 5784 5784 5785 5785 5785 5786 5786 5786 5786 5785 5785 5784 5784 5784 5783 5783 5782 5782 5781 5780 5779 5778 5777 5776 5775 5774 5773 5772 5771 5770 5769
5769 5770 5770 5771 5771 5772 5773 5773 5774 5775 5775 5776 5777 5778 5778 5779 5779 5780 5780 5780 5780 5779 5779 5778 5778 5777 5777 5776 5776 5775 5775 5774 5773 5772 5771 5770 5769 5767 5766 5765 5764 5763 5761
5762 5762 5763 5763 5764 5764 5765 5766 5767 5767 5768 5769 5770 5771 5772 5772 5772 5773 5773 5773 5773 5773 5772 5772 5771 5770 5770 5769 5768 5768 5767 5766 5766 5765 5763 5763 5762 5760 5759 5757 5756 5755 5753
5754 5755 5755 5756 5756 5757 5757 5758 5759 5759 5760 5761 5762 5763 5764 5765 5765 5765 5766 5766 5766 5765 5765 5765 5764 5763 5762 5762 5761 5760 5759 5759 5758 5757 5755 5754 5754 5752 5751 5749 5747 5746 5744
5746 5747 5747 5748 5748 5748 5749 5750 5751 5751 5752 5753 5754 5755 5756 5757 5757 5758 5758 5758 5758 5758 5757 5757 5756 5755 5754 5754 5753 5752 5751 5750 5749 5748 5747 5746 5745 5743 5741 5740 5738 5736 5734
5738 5739 5739 5739 5740 5740 5741 5741 5742 5743 5744 5745 5746 5747 5747 5748 5749 5749 5750 5750 5750 5750 5749 5749 5748 5747 5746 5746 5744 5743 5742 5741 5740 5739 5738 5737 5735 5733 5732 5730 5728 5726 5724
5730 5731 5731 5731 5731 5731 5732 5732 5733 5734 5735 5736 5737 5738 5739 5740 5740 5741 5741 5741 5741 5741 5741 5741 5740 5739 5738 5737 5736 5735 5733 5732 5731 5730 5728 5726 5725 5723 5721 5719 5717 5715 5713
5722 5722 5722 5722 5723 5723 5723 5724 5724 5725 5725 5726 5727 5728 5729 5730 5731 5731 5732 5732 5732 5732 5731 5731 5731 5730 5728 5727 5726 5725 5724 5722 5721 5719 5718 5716 5714 5712 5710 5708 5706 5704 5702
5713 5713 5713 5714 5714 5714 5714 5714 5715 5716 5716 5716 5717 5718 5719 5720 5720 5721 5721 5722 5722 5722 5721 5721 5721 5720 5719 5717 5716 5715 5714 5712 5711 5709 5707 5705 5703 5701 5699 5697 5695 5692 5690
5703 5703 5704 5704 5704 5705 5705 5706 5706 5706 5707 5707 5707 5708 5708 5709 5710 5710 5711 5711 5712 5712 5711 5711 5710 5709 5708 5707 5706 5705 5704 5702 5700 5698 5696 5695 5693 5690 5688 5686 5683 5681 5679
5693 5694 5694 5695 5695 5695 5696 5696 5696 5696 5697 5697 5697 5698 5698 5698 5699 5699 5700 5701 5701 5701 5700 5700 5699 5698 5698 5697 5696 5694 5693 5692 5690 5688 5686 5684 5682 5679 5677 5675 5672 5671 5669
5684 5684 5684 5685 5685 5685 5685 5686 5686 5686 5686 5687 5687 5687 5687 5687 5688 5689 5689 5689 5690 5690 5689 5689 5688 5687 5687 5686 5684 5683 5682 5681 5679 5677 5675 5673 5671 5668 5666 5664 5662 5661 5659
5674 5674 5675 5675 5675 5675 5675 5676 5676 5676 5676 5676 5676 5676 5676 5676 5677 5677 5678 5678 5678 5678 5677 5677 5677 5676 5675 5674 5673 5672 5671 5669 5668 5666 5664 5662 5659 5657 5655 5653 5652 5650 5648
5665 5665 5665 5665 5665 5665 5665 5665 5666 5666 5666 5666 5665 5665 5665 5664 5665 5665 5665 5665 5665 5665 5665 5665 5665 5664 5663 5663 5662 5660 5659 5658 5656 5654 5652 5650 5648 5646 5644 5642 5641 5639 5638
5654 5655 5655 5655 5655 5655 5654 5654 5654 5654 5654 5654 5654 5654 5653 5653 5653 5653 5653 5653 5653 5653 5653 5653 5653 5652 5651 5650 5649 5648 5647 5646 5644 5642 5640 5638 5636 5634 5632 5631 5630 5628 5627
5644 5644 5644 5644 5644 5644 5644 5643 5643 5643 5642 5642 5642 5641 5641 5640 5640 5640 5640 5640 5640 5640 5640 5640 5640 5639 5639 5638 5637 5636 5634 5633 5631 5629 5627 5625 5624 5622 5621 5619 5618 5617 5615
5634 5634 5633 5633 5633 5633 5633 5632 5632 5631 5630 5630 5629 5629 5629 5628 5628 5628 5628 5628 5628 5628 5628 5628 5627 5627 5626 5625 5624 5623 5622 5620 5618 5616 5614 5612 5611 5610 5609 5607 5606 5605 5603
5623 5623 5623 5622 5622 5622 5621 5621 5620 5619 5618 5618 5617 5617 5617 5616 5616 5616 5616 5616 5616 5616 5615 5615 5615 5614 5614 5613 5612 5610 5609 5607 5605 5603 5602 5600 5599 5598 5597 5596 5594 5593 5592